Location: Lynch Observatory
(39.9540°N, 75.1861°W)
Time: 20:03:43
(UTC-04:00)

ZACube-1 - Pass Details

Date: 25 April 2024
Orbit: 566 x 635 km, 97.7° (Epoch: 28 May)

Event Time Altitude Azimuth Distance (km) Brightness Sun altitude
Rises 05:19:51 0° 351° (N) 2,928 ? -9.4°
Reaches altitude 10° 05:23:08 10° 324° (NW) 2,023 ? -8.8°
Maximum altitude 05:25:10 13° 296° (WNW) 1,821 ? -8.4°
Drops below altitude 10° 05:27:13 10° 268° (W) 2,024 ? -8.1°
Enters shadow 05:27:42 - 263° (W) 2,123 ? -8.0°
